Rugby, ND

7:12 PM CDT on March 22, 2017 (GMT -0500)
Rugby Municipal

Weather History for KRUG - July, 2013

Change the Weather History Date:

Sunday, July 14, 2013

  Actual Average Record
Temperature  
Mean Temperature 64 °F -  
Max Temperature 71 °F 83 °F 96 °F (1983)
Min Temperature 57 °F 56 °F 43 °F (1993)
Degree Days  
Heating Degree Days 1    
Growing Degree Days 14 (Base 50)    
Moisture  
Dew Point 58 °F    
Average Humidity 82    
Maximum Humidity 100    
Minimum Humidity 60    
Precipitation  
Precipitation 0.00 in - - ()
Sea Level Pressure  
Sea Level Pressure 30.18 in    
Wind  
Wind Speed 10 mph (NNE)    
Max Wind Speed 16 mph    
Max Gust Speed 26 mph    
Visibility 10 miles    
Events      
Averages and records for this station are not official NWS values.
T = Trace of Precipitation, MM = Missing Value Source: NWS Daily Summary

Daily Weather History Graph

Daily Weather History Graph

Search for Another Location

Airport or City:

Trip Planner

Search our weather history database for the weather conditions in past years. The results will help you decide how hot, cold, wet, or windy it might be!

Date:

Astronomy

Jul. 14, 2013 Rise Set
Actual Time 5:53 AM CDT 9:37 PM CDT
Civil Twilight 5:14 AM CDT 10:17 PM CDT
Nautical Twilight 4:19 AM CDT 11:11 PM CDT
Astronomical Twilight 3:00 AM CDT 12:28 AM CDT
Moon 12:48 PM CDT (7/14) No Moon Set
Length of Visible Light 17h 03m
Length of Day
15h 43m
Waxing Crescent, 35% of the Moon is Illuminated
Jul 14
Waxing Crescent
Jul 15
First Quarter
Jul 22
Full
Jul 29
Last Quarter
Aug 6
New

Hourly Weather History & Observations

Time (CDT) Temp. Dew Point Humidity Pressure Visibility Wind Dir Wind Speed Gust Speed Precip Events Conditions
12:15 AM 64.4 °F 64.4 °F 100% 30.02 in 10.0 mi ENE 8.1 mph - N/A   Clear
12:35 AM 64.4 °F 64.4 °F 100% 30.02 in 10.0 mi ENE 5.8 mph - N/A   Clear
12:55 AM 64.4 °F 64.4 °F 100% 30.02 in 10.0 mi ENE 6.9 mph - N/A   Clear
1:15 AM 64.4 °F 64.4 °F 100% 30.02 in 10.0 mi NNW 6.9 mph - N/A   Clear
1:35 AM 62.6 °F 62.6 °F 100% 30.04 in 10.0 mi NW 10.4 mph - N/A   Scattered Clouds
1:55 AM 62.6 °F 62.6 °F 100% 30.04 in 10.0 mi NNW 9.2 mph - N/A   Mostly Cloudy
2:15 AM 62.6 °F 62.6 °F 100% 30.04 in 10.0 mi NNW 8.1 mph - N/A   Overcast
2:35 AM 62.6 °F 62.6 °F 100% 30.05 in 10.0 mi NNW 15.0 mph 18.4 mph N/A   Overcast
2:55 AM 62.6 °F 62.6 °F 100% 30.07 in 10.0 mi NNW 9.2 mph - N/A   Overcast
3:15 AM 62.6 °F 62.6 °F 100% 30.08 in 10.0 mi NNW 10.4 mph - N/A   Overcast
3:35 AM 62.6 °F 60.8 °F 94% 30.09 in 10.0 mi North 11.5 mph 17.3 mph N/A   Overcast
3:55 AM 60.8 °F 59.0 °F 94% 30.10 in 10.0 mi North 15.0 mph 18.4 mph N/A   Overcast
4:15 AM 59.0 °F 59.0 °F 100% 30.11 in 10.0 mi North 15.0 mph 18.4 mph N/A   Overcast
4:35 AM 59.0 °F 59.0 °F 100% 30.11 in 10.0 mi North 13.8 mph 19.6 mph N/A   Overcast
4:55 AM 59.0 °F 57.2 °F 94% 30.11 in 10.0 mi North 11.5 mph - N/A   Overcast
5:15 AM 59.0 °F 57.2 °F 94% 30.12 in 10.0 mi North 12.7 mph - N/A   Overcast
5:35 AM 59.0 °F 57.2 °F 94% 30.13 in 10.0 mi NNE 12.7 mph - N/A   Mostly Cloudy
5:55 AM 57.2 °F 55.4 °F 94% 30.13 in 10.0 mi North 10.4 mph - N/A   Clear
6:15 AM 57.2 °F 55.4 °F 94% 30.13 in 10.0 mi North 10.4 mph 16.1 mph N/A   Clear
6:35 AM 57.2 °F 55.4 °F 94% 30.15 in 10.0 mi North 10.4 mph - N/A   Clear
6:55 AM 57.2 °F 55.4 °F 94% 30.15 in 10.0 mi North 9.2 mph - N/A   Partly Cloudy
7:15 AM 57.2 °F 55.4 °F 94% 30.16 in 10.0 mi North 12.7 mph - N/A   Scattered Clouds
7:35 AM 59.0 °F 55.4 °F 88% 30.16 in 10.0 mi North 12.7 mph - N/A   Clear
7:55 AM 59.0 °F 55.4 °F 88% 30.17 in 10.0 mi North 13.8 mph - N/A   Mostly Cloudy
8:15 AM 59.0 °F 55.4 °F 88% 30.18 in 10.0 mi NNE 16.1 mph 26.5 mph N/A   Mostly Cloudy
8:35 AM 60.8 °F 55.4 °F 82% 30.19 in 10.0 mi NNE 16.1 mph - N/A   Partly Cloudy
8:55 AM 62.6 °F 55.4 °F 77% 30.21 in 10.0 mi NE 15.0 mph - N/A   Scattered Clouds
9:15 AM 62.6 °F 55.4 °F 77% 30.23 in 10.0 mi NNE 15.0 mph 20.7 mph N/A   Mostly Cloudy
9:35 AM 62.6 °F 55.4 °F 77% 30.22 in 10.0 mi NNE 15.0 mph - N/A   Mostly Cloudy
9:55 AM 62.6 °F 55.4 °F 77% 30.24 in 10.0 mi NE 13.8 mph 19.6 mph N/A   Scattered Clouds
10:15 AM 64.4 °F 55.4 °F 73% 30.23 in 10.0 mi NNE 15.0 mph - N/A   Partly Cloudy
10:35 AM 64.4 °F 57.2 °F 77% 30.24 in 10.0 mi NNE 13.8 mph 18.4 mph N/A   Scattered Clouds
10:55 AM 64.4 °F 55.4 °F 73% 30.24 in 10.0 mi NE 13.8 mph 21.9 mph N/A   Partly Cloudy
11:15 AM 66.2 °F 55.4 °F 68% 30.24 in 10.0 mi NE 13.8 mph 19.6 mph N/A   Partly Cloudy
11:35 AM 66.2 °F 57.2 °F 73% 30.23 in 10.0 mi NNE 9.2 mph 17.3 mph N/A   Scattered Clouds
11:55 AM 66.2 °F 57.2 °F 73% 30.23 in 10.0 mi NE 10.4 mph - N/A   Partly Cloudy
12:15 PM 66.2 °F 57.2 °F 73% 30.22 in 10.0 mi NNE 12.7 mph - N/A   Scattered Clouds
12:35 PM 66.2 °F 57.2 °F 73% 30.22 in 10.0 mi NNE 11.5 mph 16.1 mph N/A   Mostly Cloudy
12:55 PM 66.2 °F 57.2 °F 73% 30.23 in 10.0 mi NNE 12.7 mph 16.1 mph N/A   Scattered Clouds
1:15 PM 68.0 °F 57.2 °F 68% 30.22 in 10.0 mi NNE 10.4 mph - N/A   Mostly Cloudy
1:35 PM 68.0 °F 57.2 °F 68% 30.23 in 10.0 mi NNE 8.1 mph 17.3 mph N/A   Mostly Cloudy
1:55 PM 68.0 °F 57.2 °F 68% 30.23 in 10.0 mi NNE 10.4 mph - N/A   Mostly Cloudy
2:15 PM 68.0 °F 57.2 °F 68% 30.23 in 10.0 mi NNE 6.9 mph - N/A   Mostly Cloudy
2:35 PM 68.0 °F 57.2 °F 68% 30.23 in 10.0 mi North 9.2 mph 18.4 mph N/A   Mostly Cloudy
2:55 PM 68.0 °F 57.2 °F 68% 30.23 in 10.0 mi North 9.2 mph - N/A   Scattered Clouds
3:15 PM 68.0 °F 57.2 °F 68% 30.24 in 10.0 mi NNW 9.2 mph - N/A   Scattered Clouds
3:35 PM 68.0 °F 57.2 °F 68% 30.23 in 10.0 mi NNE 10.4 mph - N/A   Mostly Cloudy
3:55 PM 69.8 °F 57.2 °F 64% 30.24 in 10.0 mi North 11.5 mph - N/A   Scattered Clouds
4:15 PM 68.0 °F 57.2 °F 68% 30.23 in 10.0 mi North 10.4 mph - N/A   Scattered Clouds
4:35 PM 69.8 °F 57.2 °F 64% 30.23 in 10.0 mi North 6.9 mph - N/A   Mostly Cloudy
4:55 PM 69.8 °F 57.2 °F 64% 30.23 in 10.0 mi NNE 9.2 mph - N/A   Mostly Cloudy
5:15 PM 68.0 °F 57.2 °F 68% 30.24 in 10.0 mi NNE 6.9 mph - N/A   Partly Cloudy
5:35 PM 71.6 °F 57.2 °F 60% 30.23 in 10.0 mi NE 6.9 mph - N/A   Scattered Clouds
5:55 PM 69.8 °F 57.2 °F 64% 30.23 in 10.0 mi NE 8.1 mph - N/A   Partly Cloudy
6:15 PM 69.8 °F 57.2 °F 64% 30.23 in 10.0 mi NE 5.8 mph - N/A   Clear
6:35 PM 69.8 °F 57.2 °F 64% 30.23 in 10.0 mi East 5.8 mph - N/A   Clear
6:55 PM 68.0 °F 57.2 °F 68% 30.22 in 10.0 mi East 8.1 mph - N/A   Partly Cloudy
7:15 PM 68.0 °F 57.2 °F 68% 30.22 in 10.0 mi East 9.2 mph - N/A   Clear
7:35 PM 68.0 °F 57.2 °F 68% 30.22 in 10.0 mi ESE 8.1 mph - N/A   Clear
7:55 PM 68.0 °F 57.2 °F 68% 30.22 in 10.0 mi East 6.9 mph - N/A   Clear
8:15 PM 68.0 °F 57.2 °F 68% 30.22 in 10.0 mi East 4.6 mph - N/A   Clear
8:35 PM 68.0 °F 59.0 °F 73% 30.22 in 10.0 mi ENE 8.1 mph - N/A   Clear
8:55 PM 66.2 °F 59.0 °F 78% 30.22 in 10.0 mi ENE 6.9 mph - N/A   Partly Cloudy
9:15 PM 66.2 °F 59.0 °F 78% 30.22 in 10.0 mi East 5.8 mph - N/A   Clear
9:35 PM 64.4 °F 59.0 °F 83% 30.21 in 10.0 mi ENE 6.9 mph - N/A   Clear
9:55 PM 62.6 °F 59.0 °F 88% 30.22 in 10.0 mi East 5.8 mph - N/A   Clear
10:15 PM 62.6 °F 59.0 °F 88% 30.22 in 10.0 mi ENE 5.8 mph - N/A   Clear
10:35 PM 59.0 °F 59.0 °F 100% 30.21 in 10.0 mi East 8.1 mph - N/A   Clear
10:55 PM 60.8 °F 59.0 °F 94% 30.20 in 10.0 mi East 8.1 mph - N/A   Clear
11:15 PM 60.8 °F 59.0 °F 94% 30.21 in 10.0 mi East 4.6 mph - N/A   Clear
11:35 PM 59.0 °F 57.2 °F 94% 30.22 in 10.0 mi East 6.9 mph - N/A   Clear
11:55 PM 60.8 °F 57.2 °F 88% 30.22 in 10.0 mi East 4.6 mph - N/A   Clear